Theta_e
322 321 320 321 321 321 317 318 315 310 313 319 317 328 331 329 333 331 329 326 324 321 321 322 323 324 324 325 326 326 327 327 328 329 329 329 327 326
321 322 323 322 322 321 319 318 316 314 313 319 320 326 330 329 330 328 326 325 322 321 320 319 319 320 321 321 322 323 324 324 323 324 324 324 323 321
318 320 321 320 319 323 321 317 315 314 314 319 322 324 326 325 326 325 326 323 321 319 318 318 317 317 318 318 318 319 320 320 319 320 320 320 319 318
320 319 321 323 322 322 321 319 317 316 318 316 319 320 321 323 323 321 322 322 320 319 318 317 316 315 313 313 313 314 313 314 315 315 316 316 316 314
322 319 320 322 322 321 321 320 321 322 320 318 317 321 321 321 319 320 320 320 321 320 316 315 314 313 313 311 310 310 308 308 308 309 311 312 311 309
324 322 323 323 322 321 320 320 321 320 320 318 318 318 318 319 319 316 315 317 315 315 312 312 311 311 310 310 310 309 306 304 304 304 304 304 304 305
323 325 324 323 321 320 321 320 320 319 318 317 316 316 316 315 314 316 313 312 311 311 308 307 305 305 306 309 310 308 304 303 302 302 301 300 300 301
322 321 321 318 315 312 313 313 318 318 317 316 315 314 314 315 315 313 312 310 305 310 306 303 303 300 300 300 304 302 301 301 300 300 300 299 298 298
323 322 321 319 318 318 311 311 310 309 314 319 316 315 314 316 315 313 313 311 308 307 304 298 297 295 297 300 301 300 299 299 298 298 298 297 297 296
324 323 320 321 320 320 320 319 319 319 319 320 318 318 318 318 317 316 312 308 307 306 303 296 296 294 295 295 299 299 298 297 297 297 297 296 295 295
324 324 322 321 305 307 320 318 317 315 307 304 304 303 302 305 312 314 309 306 302 302 305 299 297 294 293 292 294 298 297 297 296 296 297 296 295 295
323 320 308 314 301 305 320 319 316 316 316 316 314 308 309 308 309 314 312 307 304 303 306 299 297 295 293 294 292 293 293 297 296 296 297 297 296 292
321 320 315 300 300 302 309 319 315 317 312 317 317 315 317 315 315 313 312 310 306 305 308 302 298 297 296 293 291 291 290 289 291 292 296 295 295 293
321 320 311 299 300 301 309 299 302 311 318 316 317 315 313 315 318 314 313 312 312 313 310 306 301 300 298 292 292 291 289 288 289 288 289 293 295 294
318 311 299 298 298 300 299 301 305 320 318 315 313 312 313 314 315 316 316 314 313 312 313 309 305 303 302 299 297 293 290 290 290 289 290 290 290 290
306 307 306 306 304 307 308 310 319 318 317 315 313 313 314 314 314 315 313 311 310 305 302 304 308 306 304 302 299 296 296 296 292 292 293 293 293 294
310 314 316 316 314 315 318 320 320 318 317 315 314 314 315 315 314 313 312 308 308 304 300 294 293 297 296 302 299 297 297 296 296 294 294 292 294 296
314 315 312 313 315 317 318 318 318 316 319 317 316 316 316 315 315 313 311 309 307 304 300 294 293 293 292 291 295 295 295 295 293 294 292 291 291 293
314 313 313 314 315 316 317 319 318 319 319 319 317 316 316 317 311 317 315 310 307 305 302 297 294 294 292 292 289 292 293 292 292 291 291 290 290 293
317 316 313 314 316 317 317 318 317 317 317 320 318 318 318 319 317 318 317 314 313 304 301 298 296 295 298 299 290 287 288 291 290 289 289 287 286 289
315 317 317 315 314 316 317 317 317 317 316 317 319 318 319 319 317 318 317 305 305 305 305 302 303 292 291 289 286 286 286 290 291 292 290 288 285 286
318 318 317 318 317 316 316 317 317 313 313 315 318 319 318 319 318 317 315 313 308 312 309 303 294 293 291 292 287 285 285 286 290 291 291 290 286 283
320 320 319 318 319 320 319 317 316 316 315 315 315 316 318 316 317 317 315 313 311 309 298 293 292 291 290 290 286 285 286 287 288 288 290 292 292 292
Wind_Speed
3 5 4 3 4 4 4 4 6 4 2 1 1 2 4 6 11 12 15 25 26 26 21 20 20 19 12 10 12 10 10 11 11 9 8 10 10 8
1 3 2 2 2 2 4 4 3 5 4 1 1 2 6 7 13 13 15 23 27 26 23 21 18 17 10 10 14 10 11 12 11 10 10 10 10 12
2 3 3 4 3 3 4 3 4 4 7 2 2 3 6 13 11 13 15 15 15 26 24 20 15 13 13 14 13 12 11 11 11 11 11 12 14 15
3 3 4 3 5 5 5 6 4 4 9 10 3 3 8 12 14 15 11 11 13 21 19 15 15 14 13 13 12 11 10 9 11 13 13 14 15 15
4 4 4 6 5 5 7 8 7 7 9 8 7 7 9 11 14 13 14 14 10 18 17 15 12 12 12 12 11 11 11 11 12 13 13 14 14 14
3 3 5 6 8 7 8 9 9 10 10 9 10 11 12 11 13 15 11 10 9 8 15 13 12 13 12 12 12 13 13 12 12 12 12 12 13 13
4 4 5 6 9 7 7 9 11 10 10 10 10 10 12 12 14 12 12 10 7 4 6 4 4 4 5 8 11 14 13 12 11 11 11 11 11 11
6 6 6 9 10 12 12 11 8 13 13 11 11 14 12 12 12 12 12 11 5 3 4 4 2 4 3 3 9 12 12 12 12 12 12 12 11 11
5 7 7 7 12 12 16 16 16 15 11 16 14 14 16 14 13 12 11 7 5 5 7 3 2 3 3 4 8 9 10 11 11 11 11 11 10 9
5 7 9 9 12 14 13 12 12 10 9 9 13 12 12 11 10 12 11 9 8 3 4 4 1 2 2 2 4 6 8 8 10 11 11 9 8 7
6 7 8 10 10 14 14 13 12 11 15 17 15 17 13 14 12 11 9 11 5 2 1 4 2 3 1 2 3 6 7 8 8 9 9 9 9 8
5 7 10 9 11 11 14 14 12 9 12 13 10 10 9 8 11 7 10 10 6 2 3 5 3 4 2 2 3 3 3 8 9 8 10 10 9 4
5 6 5 12 12 12 10 8 11 11 11 11 10 7 5 5 4 5 5 8 6 2 6 5 4 3 1 3 2 4 4 4 4 5 8 8 8 8
6 6 6 11 13 13 9 14 15 12 8 8 8 7 5 3 3 4 5 3 2 1 9 6 5 5 4 2 4 2 4 4 3 3 4 3 7 7
5 9 12 11 12 11 15 15 12 8 8 7 6 4 3 3 5 4 3 4 1 3 5 5 5 6 4 4 4 4 4 5 5 4 4 5 5 4
10 7 6 8 7 8 7 7 4 4 6 7 4 3 3 3 3 3 3 3 3 1 5 5 5 7 4 4 4 4 4 5 5 6 5 3 3 4
8 6 5 5 5 6 6 7 4 5 5 4 4 4 4 3 3 2 2 2 3 3 1 2 4 5 4 4 3 4 4 3 4 4 4 3 3 4
6 6 4 5 7 8 8 8 5 7 6 4 3 4 4 4 4 3 3 4 4 4 4 3 3 3 2 2 4 4 3 4 4 5 4 4 3 3
3 3 5 6 6 8 10 8 7 5 4 4 4 5 5 5 5 6 6 4 5 4 4 4 4 3 3 4 2 5 4 4 5 3 3 2 3 2
3 5 5 5 6 7 7 7 5 5 6 6 6 7 8 9 7 8 8 9 8 4 4 4 5 6 8 8 4 2 6 4 4 4 4 3 3 5
4 5 5 6 6 6 6 6 6 6 7 7 8 8 9 8 8 9 9 10 8 4 7 8 12 7 4 5 3 1 1 9 4 4 5 4 3 2
7 7 6 6 7 8 8 8 8 7 7 8 9 9 9 10 10 10 8 7 9 10 10 3 5 5 4 6 5 4 3 1 5 8 5 8 6 4
8 7 6 6 7 8 8 8 9 9 8 8 9 8 9 9 10 10 10 10 8 9 5 5 4 2 3 3 5 4 6 4 3 2 1 3 4 4
Wind_Direction
204 203 206 205 185 171 174 154 141 142 149 197 198 71 124 138 137 134 137 130 130 126 126 124 120 118 126 129 114 117 132 143 147 148 131 107 99 102
142 176 135 110 152 171 163 144 127 121 141 133 41 61 139 132 127 120 127 130 130 123 117 113 118 118 128 131 128 128 110 109 113 109 105 108 119 112
87 127 111 124 125 130 109 117 119 128 138 99 75 68 130 124 126 123 134 127 121 117 119 124 131 130 126 117 109 101 106 111 115 118 117 116 107 105
124 118 136 128 104 91 104 104 108 101 132 119 115 101 98 111 121 119 115 117 118 120 133 132 126 119 116 111 107 105 107 118 116 113 108 106 107 110
138 151 169 132 105 110 111 113 115 109 114 118 121 108 99 112 110 103 106 109 118 116 92 90 97 111 101 99 110 121 117 112 105 106 109 108 110 111
134 134 145 126 129 133 121 119 120 117 117 120 122 121 118 123 120 115 99 102 101 80 66 80 82 86 105 115 119 117 111 111 111 110 108 109 111 117
93 115 116 113 124 123 133 129 128 129 131 130 128 124 126 125 122 119 111 106 75 85 87 68 79 81 84 96 116 118 113 114 115 118 120 121 123 123
94 86 104 100 99 100 91 82 121 137 141 136 136 133 122 125 122 119 124 134 119 106 95 74 61 74 64 67 117 124 127 128 131 135 138 136 136 137
95 102 94 105 108 104 87 81 71 68 108 132 131 130 129 135 128 129 134 119 123 137 111 77 42 74 50 92 114 127 135 143 142 137 138 144 146 140
82 106 118 113 119 112 103 93 84 75 76 109 118 119 119 122 127 125 122 104 100 100 104 106 109 64 56 43 139 159 152 142 149 152 159 160 158 159
97 111 125 114 113 120 109 102 88 74 59 70 82 97 107 112 129 122 127 130 130 181 118 113 155 98 174 206 207 181 168 165 167 175 181 177 177 186
95 96 96 120 111 107 122 125 113 111 110 103 101 96 103 111 119 130 149 145 126 96 208 99 139 147 201 198 171 177 182 203 201 200 201 201 194 187
120 117 122 127 114 101 102 117 118 115 111 118 127 137 125 117 107 120 142 150 142 152 179 117 147 160 106 136 211 194 183 203 199 209 208 204 202 188
131 128 134 129 120 108 100 116 119 121 125 132 140 149 140 124 129 145 142 151 214 155 162 128 148 167 149 149 196 180 210 213 165 217 198 193 213 204
129 124 130 129 108 94 128 138 140 139 140 137 148 159 171 135 111 99 118 201 60 51 176 189 146 159 164 173 175 185 146 204 194 198 191 197 194 185
105 116 116 113 88 121 133 146 134 131 145 150 164 136 108 121 145 149 145 150 147 6 38 30 184 161 177 203 168 171 194 180 180 200 202 189 192 207
114 127 130 129 128 145 158 161 144 144 157 151 143 152 152 149 156 150 136 141 176 177 140 10 37 100 72 154 193 190 169 197 189 154 145 198 205 217
134 156 153 154 161 161 170 175 172 175 174 141 138 150 160 168 176 167 168 184 179 179 185 190 158 93 73 78 64 159 160 162 173 158 137 157 187 201
132 166 162 163 160 170 179 185 186 185 159 161 165 182 174 177 172 201 201 191 212 190 192 162 171 153 160 227 275 31 164 164 145 136 155 127 160 187
152 172 173 170 169 172 175 184 180 167 185 192 195 193 198 199 196 207 207 211 217 187 188 183 199 191 193 220 186 238 5 152 140 143 137 85 52 80
187 189 181 179 180 181 187 192 193 198 204 202 206 199 203 200 209 213 212 208 197 184 214 218 220 159 112 97 61 246 330 29 57 140 138 133 175 223
199 199 194 185 188 189 191 201 208 208 208 211 212 206 204 206 214 214 209 200 205 217 224 199 147 136 155 171 188 163 152 84 49 79 86 144 169 212
206 209 211 204 202 200 202 204 210 218 212 204 205 205 203 207 216 216 214 208 205 206 175 170 160 103 151 163 140 161 160 145 143 146 212 243 255 136